Location: Ajisawe
(8.4333°N, 4.3833°E)
Time: 14:11:13
(UTC+00:00)

Aurora 2 Rocket - Pass Details

Date: 07 June 2020
Orbit: 390 x 1744 km, 25.0° (Epoch: 07 July)

Event Time Altitude Azimuth Distance (km) Brightness Sun altitude
Exits shadow 03:44:10 24° 351° (N) 908 3.6 -22.9°
Drops below altitude 10° 03:46:23 10° 35° (NE) 1,437 5.3 -22.5°
Sets 03:48:33 0° 49° (NE) 2,257 6.9 -22.0°
